sat.trackr.live / text

‹ back to catalog

STARLINK-35054

NORAD 65383 · 2025-191E

PAYLOAD ACTIVE UNKNOWN

§ Identity

Operator
Country
US
Launch date
2025-08-30
Launch site
AFWTR
Launch vehicle
Mass (kg)
RCS (m²)

Purposes: comms

External: N2YO · Heavens-Above · Gunter

§ Orbital elements

Epoch: 2026-05-25T02:36:10.043712Z

Period
95.64 min
Inclination
97.4533°
Eccentricity
0.0002145
Mean motion
15.05656486 rev/d
Perigee alt
548.0 km
Apogee alt
551.0 km
Semi-major
6,927.6 km
B*
1.9769e-4
RAAN
16.4045°
Arg perigee
75.5384°
Mean anomaly
284.6081°
Rev number
4,176

§ Raw data

STARLINK-350541 65383U 25191E   26145.10844958  .00002795  00000+0  19769-3 0  99972 65383  97.4533  16.4045 0002145  75.5384 284.6081 15.05656486 41765

JSON: /api/v1/satellites/65383 · /tle

For live sub-satellite position, see the globe view (requires WebGL).

§ Visibility from observer

Set your observer location to see the next 7 days of passes ≥ 10°. The values pass through the URL so the page stays shareable.

No JS? Fill the form by hand. The geolocation button needs JavaScript.